Regional Weather Roundup
Issued by NWS Kansas City/Pleasant Hill, MO

Home | Current Version | Previous Version | Graphics & Text | Print | Product List | Glossary Off
Versions: 1 2 3 4 5 6 7 8 9 10 11 12 13 14 15 16 17 18 19 20 21 22 23 24 25 26 27 28 29 30 31 32 33 34 35 36 37 38 39 40 41 42 43 44 45 46 47 48 49 50

848
ASUS43 KEAX 240610
RWREAX

WEATHER ROUNDUP FOR EASTERN KANSAS AND NORTHWEST MISSOURI
NATIONAL WEATHER SERVICE KANSAS CITY/PLEASANT HILL MO
100 AM CDT TUE MAY 24 2016

KSZ040-057-103>105-MOZ028-029-037-043-240700-
...KANSAS CITY METROPOLITAN AREA...

CITY           SKY/WX    TMP DP  RH WIND       PRES   REMARKS
K.C. INTL      PTCLDY    63  60  90 S10       29.90F
6HR MIN TEMP:  60; 6HR MAX TEMP:  70;

K.C. DOWNTOWN  CLEAR     63  60  90 S6        29.90S
6HR MIN TEMP:  63; 6HR MAX TEMP:  73;

LEES SUMMIT    CLEAR     64  60  87 S8        29.92R
6HR MIN TEMP:  64; 6HR MAX TEMP:  73;

OLATHE - IXD   CLEAR     62  61  96 S8        29.92R
6HR MIN TEMP:  61; 6HR MAX TEMP:  69;

OLATHE - OJC   MOCLDY    61  59  93 S3        29.92R
6HR MIN TEMP:  60; 6HR MAX TEMP:  69;

LAWRENCE       PTCLDY    63  61  93 E9        29.89F

$$

MOZ001>008-011>017-020>025-030>033-038>040-044>046-053-054-240700-
...NORTHERN AND CENTRAL MISSOURI...

CITY           SKY/WX    TMP DP  RH WIND       PRES   REMARKS
ST. JOSEPH     CLOUDY    66  61  84 S10       29.88F
6HR MIN TEMP:  64; 6HR MAX TEMP:  70;

MOSBY          MOCLDY    61  61 100 SE6       29.91S
WARRENSBURG    PTCLDY    61  59  94 SE3       29.92S
WHITEMAN AFB   CLEAR     63  63 100 S5        29.93R
6HR MIN TEMP:  63; 6HR MAX TEMP:  74;

CLINTON        CLEAR     63  61  94 CALM      29.94R
SEDALIA        CLOUDY    65  60  84 S5        29.95R
6HR MIN TEMP:  64; 6HR MAX TEMP:  75;

WARSAW         NOT AVBL
CHILLICOTHE      N/A     62  60  93 CALM      29.92R
6HR MIN TEMP:  62; 6HR MAX TEMP:  77;

KIRKSVILLE     CLOUDY    66  56  70 S9        29.93R
6HR MIN TEMP:  63; 6HR MAX TEMP:  75;


$$

MOZ041-047>049-056>058-063>065-088>090-097-240700-
...EASTERN AND SOUTHERN MISSOURI...

CITY           SKY/WX    TMP DP  RH WIND       PRES   REMARKS
ST. LOUIS INTL CLOUDY    72  53  51 S5        29.96R
6HR MIN TEMP:  71; 6HR MAX TEMP:  80;

SPIRIT OF STL  PTCLDY    63  57  81 CALM      29.94R
COLUMBIA       CLOUDY    67  58  72 SE3       29.95R
JEFFERSON CITY CLOUDY    69  59  70 SE3       29.94S
ROLLA          CLOUDY    66  57  72 S5        29.94S
OSAGE BEACH      N/A    N/A N/A N/A S5        29.95S
SPRINGFIELD    CLEAR     61  59  93 S5        29.95R FOG
JOPLIN         CLOUDY    64  61  90 S7        29.92S
WEST PLAINS    CLEAR     62  57  83 CALM      29.99R

$$

IAZ060-094-KSZ022-034>040-054-083-096-NEZ052-066-093-240700-
...KANSAS...SOUTHEAST NEBRASKA AND IOWA...

CITY           SKY/WX    TMP DP  RH WIND       PRES   REMARKS
TOPEKA         PTCLDY    65  61  87 SE6       29.87F
6HR MIN TEMP:  64; 6HR MAX TEMP:  72;

MANHATTAN      MOCLDY    68  61  78 S6        29.85F
EMPORIA        CLOUDY    64  61  90 SE10      29.88F
CHANUTE        CLOUDY    66  62  87 S8        29.90S
WICHITA        CLOUDY    69  65  86 SE15      29.81F
OMAHA          TSTM      66  63  90 CALM      29.85R
LINCOLN        CLOUDY    60  58  92 NE5       29.85S
FALLS CITY     CLOUDY    67  62  84 SE9       29.85F
LAMONI         CLOUDY    66  61  84 S9        29.90R
DES MOINES     MOCLDY    68  60  75 S8        29.87S

$$





USA.gov is the U.S. government's official web portal to all federal, state and local government web resources and services.